Probability
0 0 0 0 0 0 0 0 0 0 0 0 0 0 0 0 0 0 0 0 0 0 0 0 0 0 0 0 0 0 0 0 0 0 0 0 0 0 0 0 0 0 0 0
0 0 0 0 0 0 0 0 0 0 0 0 0 0 0 0 0 0 0 0 0 0 0 0 0 0 0 0 0 0 0 0 0 0 0 0 0 0 0 0 0 0 0 0
0 0 0 0 0 0 0 0 0 0 0 0 0 0 0 0 0 0 0 0 0 0 0 0 0 0 0 0 0 0 0 1 1 0 0 0 0 0 0 0 0 0 0 0
0 0 0 0 0 0 0 0 0 0 0 0 0 0 0 0 0 0 0 0 0 0 0 0 0 0 0 0 0 0 1 2 2 1 0 0 0 0 0 0 0 0 0 0
0 0 0 0 0 0 0 0 0 0 0 0 0 0 0 0 0 0 0 0 0 0 0 0 0 0 0 0 0 0 1 2 2 1 0 0 0 0 0 0 0 0 0 0
0 0 0 0 0 0 0 0 0 0 0 0 0 0 0 0 0 0 0 0 0 0 0 0 0 0 0 0 0 0 1 2 1 0 0 0 0 0 0 0 0 0 0 0
0 0 0 0 0 0 0 0 0 0 0 0 0 0 0 0 0 0 0 0 0 0 0 0 0 0 0 0 0 1 2 2 1 0 0 0 0 0 0 0 0 0 0 0
0 0 0 0 0 0 0 0 0 0 0 0 0 0 0 0 0 0 0 0 0 0 0 0 0 0 0 0 0 1 2 2 1 0 0 0 0 0 0 0 0 0 0 0
0 0 0 0 0 0 0 0 0 0 0 0 0 0 0 0 0 0 0 0 0 0 0 0 0 0 0 1 2 2 2 2 1 0 0 0 0 0 0 0 0 0 0 0
0 0 0 0 0 0 0 0 0 0 0 0 0 0 0 0 0 0 0 0 0 0 0 0 0 0 0 1 2 2 1 1 0 0 0 0 0 0 0 0 0 0 0 0
0 0 0 0 0 0 0 0 0 0 0 0 0 0 0 0 0 0 0 0 0 0 0 0 0 0 0 1 1 1 0 0 0 0 0 0 0 0 0 0 0 0 0 0
0 0 0 0 0 0 0 0 0 0 0 0 0 0 0 0 0 0 0 0 0 0 0 0 0 0 0 0 0 0 0 0 0 0 0 0 0 0 0 0 0 0 0 0
0 0 0 0 0 0 0 0 0 0 0 0 0 0 0 0 0 0 0 0 0 0 0 0 0 0 0 0 0 0 0 0 0 0 0 0 0 0 0 0 0 0 0 0
0 0 0 0 0 0 0 0 0 0 0 0 0 0 0 0 0 0 0 0 0 0 0 0 0 0 0 0 0 0 0 0 0 0 0 0 0 0 0 0 0 0 0 0
0 0 0 0 0 0 0 0 0 0 0 0 0 0 0 0 0 0 0 0 0 0 0 0 0 0 0 0 0 0 0 0 0 0 0 0 0 0 0 0 0 0 0 0
0 0 0 0 0 0 0 0 0 0 0 0 0 0 0 0 0 0 0 0 0 0 0 0 0 0 0 0 0 0 0 0 0 0 0 0 0 0 0 0 0 0 0 0
0 0 0 0 0 0 0 0 0 0 0 0 0 0 0 0 0 0 0 0 0 0 0 0 0 0 0 0 0 0 0 0 0 0 0 0 0 0 0 0 0 0 0 0
0 0 0 0 0 0 0 0 0 0 0 0 0 0 0 0 0 0 0 0 0 0 0 0 0 0 0 0 0 0 0 0 0 0 0 0 0 0 0 0 0 0 0 0
0 0 0 0 0 0 0 0 0 0 0 0 0 0 0 0 0 0 0 0 0 0 0 0 0 0 0 0 0 0 0 0 0 0 0 0 0 0 0 0 0 0 0 0
0 0 0 0 0 0 0 0 0 0 0 0 0 0 0 0 0 0 0 0 0 0 0 0 0 0 0 0 0 0 0 0 0 0 0 0 0 0 0 0 0 0 0 0
0 0 0 0 0 0 0 0 0 0 0 0 0 0 0 0 0 0 0 0 0 0 0 0 0 0 0 0 0 0 0 0 0 0 0 0 0 0 0 0 0 0 0 0
0 0 0 0 0 0 0 0 0 0 0 0 0 0 0 0 0 0 0 0 0 0 0 0 0 0 0 0 0 0 0 0 0 0 0 0 0 0 0 0 0 0 0 0
0 0 0 0 0 0 0 0 0 0 0 0 0 0 0 0 0 0 0 0 0 0 0 0 0 0 0 0 0 0 0 0 0 0 0 0 0 0 0 0 0 0 0 0
0 0 0 0 0 0 0 0 0 0 0 0 0 0 0 0 0 0 0 0 0 0 0 0 0 0 0 0 0 0 0 0 0 0 0 0 0 0 0 0 0 0 0 0
0 0 0 0 0 0 0 0 0 0 0 0 0 0 0 0 0 0 0 0 0 0 0 0 0 0 0 0 0 0 0 0 0 0 0 0 0 0 0 0 0 0 0 0
0 0 0 0 0 0 0 0 0 0 0 0 0 0 0 0 0 0 0 0 0 0 0 0 0 0 0 0 0 0 0 0 0 0 0 0 0 0 0 0 0 0 0 0
Wind_Speed
2 3 4 7 6 3 3 3 4 4 1 1 5 10 12 7 5 7 7 5 5 6 5 2 2 2 1 1 2 3 3 3 4 2 2 2 1 1 0 0 1 2 2 3
3 4 4 2 3 3 3 3 4 4 1 1 5 10 9 6 6 6 6 6 6 4 3 2 1 2 2 3 3 3 3 3 4 3 2 2 2 1 1 0 0 1 2 2
6 2 2 3 3 4 4 5 4 4 3 1 3 8 5 3 2 3 4 5 4 4 5 3 2 3 3 4 4 4 4 4 4 3 3 3 2 2 1 0 0 1 1 2
3 2 2 3 4 5 6 3 3 2 2 4 0 6 7 4 4 4 4 4 5 5 4 3 3 3 4 5 4 4 4 4 4 4 4 4 3 2 2 2 1 1 1 2
4 2 3 4 4 5 3 1 2 2 2 4 2 4 9 2 4 4 4 4 5 5 4 4 4 4 4 3 3 3 3 3 3 4 5 5 3 2 1 1 1 1 1 2
2 1 2 3 1 3 3 3 2 2 2 5 5 5 9 5 6 4 3 3 4 4 3 3 2 1 1 1 2 3 3 3 3 4 4 5 4 3 3 2 2 1 1 1
2 2 1 1 3 2 3 4 2 2 2 7 3 5 11 5 4 4 4 4 4 3 2 2 1 1 1 2 3 3 4 3 3 4 4 4 4 4 4 4 3 2 1 2
5 4 4 2 4 5 5 6 6 5 5 5 3 8 8 3 2 2 3 3 3 3 2 2 2 2 2 2 3 3 4 3 3 3 3 2 2 2 2 3 3 3 3 3
7 5 0 1 1 5 6 4 3 3 1 3 6 7 8 2 2 2 3 3 3 3 3 2 2 1 1 2 3 4 4 3 3 3 2 2 2 2 2 2 1 2 2 2
5 3 2 1 1 0 2 5 4 4 3 5 6 6 6 4 4 4 3 3 4 3 3 2 1 1 1 1 1 2 3 3 3 3 2 2 2 2 2 2 2 1 1 1
3 4 1 1 6 7 5 4 4 3 3 4 5 8 5 6 5 5 4 3 3 3 3 2 2 1 0 1 1 2 2 2 2 2 2 2 1 1 2 2 2 2 1 1
4 4 3 4 2 1 3 6 7 5 5 4 4 9 2 3 3 2 3 3 2 2 2 2 1 1 1 1 1 1 1 2 2 2 2 1 1 1 1 1 1 1 1 2
5 5 2 2 2 1 4 5 5 3 3 5 5 9 2 1 1 1 2 2 2 2 2 2 2 1 1 0 0 1 1 1 1 2 2 1 1 1 2 2 1 1 1 1
4 4 6 8 5 5 5 6 7 6 6 7 11 9 7 4 3 3 2 2 1 1 2 2 2 1 1 1 0 1 1 1 1 1 2 2 2 2 2 2 1 2 2 2
4 4 4 4 2 2 6 8 11 12 11 11 9 9 10 6 5 4 3 2 2 2 2 1 2 2 1 1 1 1 1 1 1 1 1 2 2 1 1 1 2 2 2 2
2 3 2 3 2 2 6 9 12 13 12 12 10 12 6 4 2 3 3 3 3 3 3 3 2 2 2 2 1 1 1 1 1 1 2 1 1 1 1 2 2 2 2 2
3 4 3 4 1 2 10 12 13 10 9 10 14 12 3 4 5 6 5 4 4 4 3 3 3 3 3 2 2 2 2 1 1 1 1 1 1 2 2 2 2 2 3 3
5 4 3 2 2 10 9 3 8 10 9 10 7 4 5 6 5 4 3 4 5 4 4 3 3 3 2 2 1 1 0 1 1 1 1 1 1 2 2 2 3 3 3 3
6 6 4 3 4 10 8 3 6 8 9 8 10 7 5 3 2 4 3 3 4 4 3 3 2 2 1 1 1 1 0 0 1 2 2 2 2 2 2 3 3 3 3 3
3 4 4 4 5 10 7 2 3 4 7 4 7 7 4 2 2 6 2 1 2 2 1 1 1 1 1 1 0 1 1 1 2 3 3 2 2 3 4 4 3 3 3 4
5 5 7 6 7 11 6 2 5 5 7 2 5 6 5 6 6 2 0 0 1 1 1 1 1 1 1 1 1 1 1 2 3 3 2 2 2 3 3 3 3 2 3 3
10 9 9 7 8 13 3 6 8 6 1 1 3 3 4 4 2 1 0 0 1 1 2 2 1 1 2 1 0 0 2 3 2 2 2 2 2 2 2 2 2 2 2 3
9 9 8 10 9 2 5 5 3 1 1 1 2 2 3 2 2 2 1 1 1 1 1 1 1 1 2 1 1 1 3 2 2 2 2 2 2 2 2 2 2 2 2 2
5 2 4 5 7 4 3 3 2 1 2 2 2 2 3 3 2 2 2 2 1 1 1 1 1 1 2 2 1 2 2 2 1 2 2 2 2 2 2 2 2 2 3 3
5 5 4 6 5 3 4 5 5 3 2 2 1 2 3 3 3 3 3 3 2 2 1 1 1 2 3 3 2 2 2 1 1 2 2 2 2 2 2 2 2 3 3 4
6 7 8 8 6 6 5 4 4 4 4 4 3 2 2 3 4 3 3 2 2 1 1 1 2 2 3 2 2 2 2 1 1 1 1 1 1 2 2 2 3 4 4 6
Wind_Direction
68 102 205 212 203 191 175 192 240 258 256 210 247 266 277 280 259 263 268 267 262 260 268 263 237 224 191 174 173 176 166 158 145 137 138 133 146 142 104 151 152 142 134 137
71 238 233 193 185 188 187 218 249 281 289 239 279 277 273 264 248 242 249 255 258 271 297 292 241 205 204 201 192 182 178 170 170 165 150 134 135 140 121 83 99 136 146 153
192 233 174 158 169 190 220 212 223 250 331 325 315 298 278 273 260 268 258 256 257 248 258 261 235 215 210 210 203 198 191 181 177 157 122 95 88 74 76 111 212 222 177 168
227 258 158 173 203 185 238 217 203 227 302 286 323 290 281 270 294 286 282 278 269 261 250 245 233 220 215 215 204 196 189 180 172 158 156 153 163 184 202 191 189 186 175 174
226 205 180 203 214 177 204 146 182 216 224 290 256 245 278 278 268 271 275 279 275 267 249 243 232 226 220 210 196 191 181 176 169 169 171 173 183 191 155 133 147 164 177 180
240 241 209 208 169 159 138 78 61 60 91 263 224 205 270 233 226 245 268 287 289 284 267 259 249 226 214 186 182 181 175 180 175 175 176 181 184 174 157 160 176 198 213 210
257 262 254 154 118 116 123 106 34 339 295 251 197 215 251 239 218 216 249 279 296 297 281 270 250 218 208 189 186 186 180 185 182 178 181 187 193 186 188 189 194 199 214 232
188 243 215 193 172 171 184 165 173 208 234 273 231 236 254 240 230 239 262 278 302 312 298 273 248 225 216 202 191 184 184 187 180 181 188 183 189 191 202 201 196 206 219 223
184 225 189 200 208 155 159 195 170 140 126 276 262 271 291 239 267 278 287 306 302 300 293 279 263 229 219 204 196 190 184 182 178 179 175 176 178 189 208 209 207 220 231 226
162 199 260 255 110 3 159 145 128 155 188 252 274 256 246 232 241 259 275 284 292 309 315 308 283 246 236 206 194 180 182 191 187 177 177 181 183 196 200 192 207 225 241 238
157 161 260 188 194 186 156 162 163 161 187 195 261 265 228 215 217 228 249 268 289 297 304 306 301 288 272 83 126 162 178 177 180 180 176 171 184 189 184 195 216 224 232 228
166 146 204 234 243 229 195 187 167 179 221 210 235 267 265 215 235 238 261 284 312 317 318 320 341 11 43 71 117 143 165 184 195 185 167 176 181 167 183 219 232 228 234 238
153 148 128 335 306 219 219 206 190 158 150 190 209 261 301 342 317 297 283 308 327 350 1 4 17 16 5 8 122 158 163 201 183 165 164 167 181 191 215 234 241 240 240 248
147 168 187 202 211 180 204 205 187 172 197 221 228 249 278 290 292 299 291 281 294 334 353 350 342 341 337 333 290 210 195 204 163 158 171 189 208 217 225 239 246 244 241 244
144 202 220 250 269 199 218 214 203 208 212 218 235 234 254 249 243 254 263 275 291 315 317 305 303 304 313 316 304 268 237 214 180 174 193 221 227 228 228 241 250 252 248 249
147 182 195 260 255 250 255 234 219 225 227 236 255 260 252 261 257 266 260 256 268 282 284 280 285 289 281 276 276 275 255 235 182 192 227 248 232 238 241 248 249 251 255 254
165 152 177 247 300 350 260 222 205 213 217 207 231 242 235 257 245 240 237 234 245 266 275 271 269 269 270 262 251 238 240 217 192 218 247 258 239 244 249 250 242 245 249 251
162 157 168 182 116 235 242 189 193 211 228 217 234 235 219 232 240 238 231 235 252 264 273 273 267 267 269 260 250 252 221 178 202 233 262 271 260 262 264 247 245 250 252 247
179 164 161 168 219 269 285 220 179 198 248 221 228 240 246 263 310 282 265 239 249 262 272 276 269 264 267 258 240 174 202 205 228 255 259 259 254 256 256 253 253 252 249 252
166 163 166 175 203 237 249 220 183 148 263 227 205 218 220 159 232 264 281 264 278 302 315 307 312 328 324 303 249 165 232 250 259 265 268 267 257 250 251 257 261 260 252 252
168 180 199 202 227 258 255 191 132 172 249 234 192 199 186 193 219 255 294 282 315 327 339 352 3 3 319 335 76 183 251 262 273 284 286 277 261 257 258 266 269 264 261 260
179 178 192 181 213 248 205 150 183 213 235 162 168 180 187 210 225 251 241 282 338 351 0 12 14 352 352 1 44 272 279 291 307 301 288 281 273 265 263 260 269 263 249 251
203 195 188 195 214 246 167 187 218 151 184 190 174 184 174 188 232 238 244 251 279 313 336 358 3 346 352 8 26 282 300 318 315 299 281 281 281 274 267 251 256 263 250 251
234 211 189 233 254 247 236 256 275 241 218 221 186 175 179 205 224 234 233 242 260 293 324 352 359 329 326 340 347 302 310 316 289 275 283 287 279 285 282 267 251 248 247 251
212 183 201 238 258 277 256 233 238 243 239 232 220 208 203 202 226 231 235 235 239 264 303 327 290 289 303 323 325 322 322 317 285 277 280 284 277 269 272 273 267 261 254 250
196 190 196 225 218 213 238 224 219 227 238 224 215 236 226 204 218 228 240 245 243 256 291 301 299 300 302 314 315 323 324 301 258 279 284 279 277 271 270 277 296 295 292 292